Location: Nelson
(41.2830°S, 173.2830°E)
Time: 20:48:08
(UTC+12:00)

Meteor 2-13 Rocket - Visible Passes

Search period start: 24 May 2019 00:00
Search period end: 03 June 2019 00:00
Orbit: 936 x 957 km, 82.5° (Epoch: 23 May)

Date Brightness Start Highest point End Pass type
(mag) Time Alt. Az. Time Alt. Az. Time Alt. Az.
24 May 6.6 06:12:02 10° NE 06:17:04 28° E 06:22:08 10° SSE visible
24 May 5.3 18:47:36 10° SSW 18:53:37 53° W 18:59:33 10° NNW visible
25 May 5.7 06:27:57 10° NNE 06:33:38 44° E 06:39:23 10° SSE visible
25 May 6.1 19:04:45 10° SSW 19:10:13 34° W 19:15:40 10° NNW visible
26 May 4.9 06:44:16 10° N 06:50:17 69° E 06:56:24 10° SSE visible
26 May 4.6 17:36:20 10° S 17:42:27 55° ESE 17:48:29 10° NNE visible
26 May 6.9 19:22:12 10° SW 19:26:44 22° W 19:31:16 10° NW visible
27 May 7.3 05:19:55 10° ENE 05:23:05 15° E 05:26:16 10° SE visible
27 May 4.4 07:00:58 10° NNW 07:07:03 78° W 07:13:14 10° S visible
27 May 4.5 17:53:03 10° S 17:59:17 85° E 18:05:28 10° N visible
27 May 7.4 19:40:21 10° SW 19:43:10 13° W 19:46:00 10° WNW visible
28 May 6.8 05:34:52 10° NE 05:39:31 24° E 05:44:13 10° SE visible
28 May 5.0 18:09:54 10° SSW 18:16:01 63° W 18:22:06 10° N visible
29 May 6.0 05:50:35 10° NNE 05:56:04 37° E 06:01:36 10° SSE visible
29 May 5.9 18:26:57 10° SSW 18:32:40 40° W 18:38:21 10° NNW visible
30 May 5.1 06:06:46 10° N 06:12:41 58° E 06:18:42 10° SSE visible
30 May 6.7 18:44:15 10° SSW 18:49:14 26° W 18:54:10 10° NW visible
31 May 7.4 04:43:27 10° E 04:45:36 12° E 04:47:46 10° ESE visible
31 May 4.5 06:23:20 10° N 06:29:25 89° E 06:35:36 10° S visible
31 May 7.2 19:02:02 10° SW 19:05:42 16° W 19:09:21 10° WNW visible
01 Jun 6.9 04:57:49 10° NE 05:02:01 20° E 05:06:15 10° SE visible
01 Jun 4.5 06:40:14 10° NNW 06:46:13 60° W 06:52:20 10° S visible
01 Jun 4.8 17:32:13 10° SSW 17:38:25 75° W 17:44:35 10° N visible
02 Jun 6.2 05:13:17 10° NNE 05:18:31 31° E 05:23:47 10° SSE visible
02 Jun 4.9 06:57:31 10° NW 07:03:09 38° WSW 07:08:52 10° S visible
02 Jun 5.6 17:49:11 10° SSW 17:55:07 48° W 18:00:59 10° NNW visible
